Location: Houston
(29.7630°N, 95.3630°W)
Time: 18:22:40
(UTC-05:00)

Daily predictions for brighter satellites

Satellite Brightness Start Highest point End
(mag) Time Altitude Azimuth Time Altitude Azimuth Time Altitude Azimuth
Cosmos 2237 4.2 20:09:24 10° SSW 20:15:04 82° ESE 20:20:46 10° NNE
Cosmos 2322 3.8 20:12:38 10° SSW 20:18:17 87° WNW 20:23:59 10° NNE
SJ-6B 3.7 20:15:46 10° SE 20:19:23 31° ENE 20:22:57 10° N
Envisat 3.6 20:18:08 10° SE 20:22:47 38° ENE 20:27:26 10° N
Cosmos 2058 4.3 20:21:37 10° NNW 20:25:37 43° W 20:29:37 10° SSW
Cosmos 1269 Rocket 4.1 20:28:30 10° NNW 20:33:50 89° WSW 20:39:07 10° SSE
SL-8 R/B 4.0 20:29:45 10° SSW 20:34:16 45° SE 20:38:50 10° ENE
Cosmos 1437 2.8 20:31:15 10° S 20:34:25 80° W 20:37:36 10° N
Cosmos 2221 3.5 20:37:46 10° SSW 20:41:55 51° W 20:46:04 10° N
Cosmos 2154 Rocket 4.1 20:39:27 10° S 20:45:34 57° E 20:51:40 10° NNE
Cosmos 1300 4.0 20:42:20 10° SSW 20:45:58 43° W 20:49:39 10° N
Thor Agena Rocket 3.5 20:43:21 10° NNE 20:48:36 78° ESE 20:53:52 10° S
Cosmos 2184 Rocket 4.4 20:43:11 10° SSW 20:49:18 69° W 20:55:27 10° N
Meteor 2-2 Rocket 4.3 20:46:17 10° S 20:51:57 60° E 20:57:44 10° NNE
HJ-1C 4.0 20:50:46 10° S 20:54:02 55° W 20:57:19 10° NNW
Cosmos 1980 4.3 20:49:39 10° SSE 20:54:37 32° ESE 20:59:36 10° NE
Cosmos 2360 Rocket 4.4 20:50:01 10° WSW 20:54:47 28° WNW 20:59:35 10° N
Resurs 01 Rocket 2.3 20:52:33 20° SE 20:54:56 34° ENE 20:58:57 10° N
GPS 2-05 Rocket1 2.7 20:53:46 10° WNW 20:57:09 74° NNE 20:58:35 31° E
Cosmos 1805 Rocket 3.4 20:53:33 10° N 20:57:53 71° E 21:02:08 10° SSE
Sakura Rocket 3.0 20:53:26 10° WSW 20:58:06 56° S 20:59:59 27° ESE
ATLAS 3B CENTAUR R/B 3.8 20:43:35 10° W 20:58:38 50° SSW 21:03:21 18° SE
CZ-2D R/B 3.4 20:54:58 10° S 20:58:45 75° W 21:02:33 10° NNW
Cosmos 1328 Rocket 4.1 20:55:29 13° SSE 20:58:55 37° E 21:02:59 10° NNE
Cosmos 2333 Rocket 2.1 20:55:08 10° S 21:00:44 66° ESE 21:06:21 10° NNE
Cosmos 2341 Rocket 4.1 20:59:38 10° SSE 21:05:50 56° E 21:12:00 10° NNE
Spot 2 Rocket 4.1 21:03:43 25° ESE 21:05:54 37° ENE 21:10:33 10° N
COSMOS 2428 3.3 21:00:21 10° SSW 21:06:00 61° WNW 21:11:40 10° NNE
Cosmos 1455 2.1 21:07:45 19° SSE 21:10:15 58° E 21:14:02 10° NNE
deb Centaur AC-2 4.0 21:08:54 10° W 21:13:18 86° N 21:15:31 32° E
Cosmos 962 Rocket 4.4 21:08:12 10° S 21:14:15 69° E 21:20:20 10° N
Delta 128 4.3 21:09:53 10° W 21:15:20 67° S 21:18:19 32° ESE
ATLAS 2AS CENTAUR R/B 3.9 21:08:48 10° N 21:15:25 29° NE 21:18:17 23° E
Meteor 2-15 4.4 21:09:46 10° N 21:15:55 84° E 21:21:50 11° S
ERS-2 2.6 21:13:44 16° S 21:16:31 59° WSW 21:20:08 10° NNW
ATLAS 2A CENTAUR R/B 4.2 20:58:53 10° SW 21:19:14 47° SSE 21:24:56 28° ESE
Cosmos 1844 Rocket 2.7 21:14:42 10° NNW 21:20:20 64° ENE 21:22:47 34° SE
Cosmos 1844 4.0 21:15:09 10° N 21:20:39 48° ENE 21:22:30 36° ESE
Cosmos 1892 2.6 21:18:10 10° N 21:22:03 71° E 21:22:50 52° SSE
Cosmos 2237 Rocket 2.2 21:17:00 10° S 21:22:27 55° ESE 21:27:56 10° NNE
Cosmos 2219 Rocket 2.6 21:17:49 10° SSW 21:23:25 64° WNW 21:29:02 10° NNE
Cosmos 1295 Rocket 4.4 21:19:17 10° S 21:25:37 81° E 21:31:58 10° N
ATLAS CENTAUR R/B 1.5 21:22:04 10° SW 21:25:38 61° WNW 21:29:19 10° NNE
USA 186 3.2 21:26:57 26° NW 21:26:57 26° NW 21:28:17 10° NNW
Cosmos 2366 rocket 4.4 21:27:19 36° ESE 21:28:12 38° E 21:33:53 10° NNE
NOSS 0 Rocket 3.8 21:26:05 10° SSW 21:32:14 88° ESE 21:38:27 10° NNE
Resurs 1-3 3.7 21:31:17 34° S 21:33:09 76° W 21:37:31 10° NNW
NOAA 11 4.1 21:35:18 45° SE 21:36:54 67° ENE 21:42:21 10° N
YAOGAN 6 3.6 21:36:12 30° SSW 21:37:26 43° W 21:40:53 10° NNW
Cosmos 2278 Rocket 3.3 21:32:48 10° N 21:37:23 27° ENE 21:37:23 27° ENE
H-2A R/B 3.6 21:39:07 20° NE 21:39:07 20° NE 21:41:39 10° NNE
Cosmos 1666 Rocket 4.0 21:33:48 10° NNW 21:38:13 62° W 21:40:15 30° SSW
SL-8 Rocket 3.9 21:34:29 24° SSE 21:38:21 67° E 21:44:36 10° NNE
OAO 2 Rocket 3.7 21:37:47 10° WNW 21:42:53 57° NNE 21:43:55 47° NE
Timation 1 Rocket 4.2 21:37:26 10° NNW 21:43:26 82° ENE 21:45:06 50° SSE
Cosmos 1371 Rocket 4.2 21:50:10 53° ENE 21:50:10 53° ENE 21:54:33 10° NNE
Cosmos 1151 Rocket 3.0 21:50:12 76° W 21:50:13 76° W 21:54:29 10° N
ATLAS 2A CENTAUR R/B 4.3 21:50:14 10° WSW 21:51:35 15° WSW 21:51:35 15° WSW
Cosmos 1939 Rocket 4.4 21:52:00 25° SW 21:53:17 30° W 21:56:44 10° NW
USA 267 3.1 21:53:50 10° NE 22:00:23 82° SE 22:06:56 10° SW
BREEZE-M DEB (TANK) 3.9 21:38:37 10° NW 22:00:47 65° SW 22:02:23 48° S
Cosmos 2251 Rocket 4.4 21:56:45 10° NNW 22:01:51 45° W 22:03:36 34° SSW
Cosmos 1825 4.4 22:02:06 10° N 22:03:17 19° N 22:03:17 19° N
Cosmos 2098 Rocket 4.3 22:11:36 38° N 22:11:36 38° N 22:14:12 10° N
Cosmos 2228 Rocket 4.3 22:09:26 36° WSW 22:10:13 40° W 22:14:21 10° N
Cosmos 864 Rocket 4.3 22:10:21 77° S 22:10:50 88° E 22:16:59 10° N
Cosmos 2056 Rocket 4.5 22:13:06 39° NNE 22:13:06 39° NNE 22:16:26 10° NNE
SL-16 R/B 4.0 22:15:05 19° NE 22:15:05 19° NE 22:16:37 10° NNE
Meteor 2-3 Rocket 4.5 22:10:07 10° NNW 22:15:28 48° W 22:16:58 38° SW
ARGOS 3.7 22:26:04 54° NNW 22:26:04 54° NNW 22:30:08 10° NNW
Resurs 01 Rocket 4.2 22:30:07 14° WSW 22:31:26 15° W 22:34:01 10° WNW
ATLAS 2AS CENTAUR R/B 3.5 22:59:21 10° NW 23:05:45 48° W 23:05:45 48° W
H-2A R/B 4.3 23:19:45 20° NW 23:19:45 20° NW 23:21:33 10° NW
Cosmos 2278 Rocket 4.2 23:16:36 10° NW 23:19:15 23° WNW 23:19:15 23° WNW
